Regional Weather Roundup
Issued by NWS

Home | Current Version | Previous Version | Graphics & Text | Print | Product List | Glossary On
Versions: 1 2 3 4 5 6 7 8 9 10 11 12 13 14 15 16 17 18 19 20 21 22 23 24 25 26 27 28 29 30 31 32 33 34 35 36 37 38 39 40 41 42 43 44 45 46 47 48 49 50
000
ASUS43 KIND 010009
RWRIN

WEATHER ROUNDUP FOR INDIANA
NATIONAL WEATHER SERVICE INDIANAPOLIS IN
700 PM EST SAT FEB 28 2015

NOTE: "FAIR" INDICATES FEW OR NO CLOUDS BELOW 12,000 FEET WITH NO
SIGNIFICANT WEATHER AND/OR OBSTRUCTIONS TO VISIBILITY.

* - STATION DOES NOT REPORT WEATHER SUCH AS PRECIPITATION OR FOG.

+ - STATION NOT QUALITY CONTROLLED BY THE NATIONAL WEATHER SERVICE.
    USE DATA WITH CAUTION...ESPECIALLY DEWPOINT AND RELATIVE
    HUMIDITY OBSERVATIONS.

INZ001>003-010>013-019-020-010100-
NORTHWEST INDIANA

CITY           SKY/WX    TMP DP  RH WIND       PRES   REMARKS
GARY /AIRPORT/ CLOUDY    23   1  39 SE6       30.55F WCI  16
KNOX *+          N/A     21  -8  27 SE7       30.53F WCI  13
LA PORTE +     CLOUDY    21   9  59 E7        30.54F WCI  12
6HR MIN TEMP:  19; 6HR MAX TEMP:  23;

MICHIGAN CITY+ MOCLDY    21   0  39 SE6       30.55F WCI  14
MONTICELLO +   CLOUDY    22  10  58 E7        30.53F WCI  14
6HR MIN TEMP:  20; 6HR MAX TEMP:  24;

RENSSELAER +   CLOUDY    23  12  63 E8        30.53F WCI  14
VALPARAISO     CLOUDY    19   7  59 SE5       30.54F WCI  12
6HR MIN TEMP:  14; 6HR MAX TEMP:  20;


$$

LMZ046-743>745-010100-
SOUTHERN LAKE MICHIGAN

STATION/POSITION TIME  TEMP WIND        PRES
                       AIR  DIR/SP/G
                 (UTC) (F)  (DEG/KT/KT) (MB)
MICHIGAN CITY    2300   20  130/  5/  8   N/A

$$

INZ004-005-014>016-021>024-010100-
NORTH CENTRAL INDIANA

CITY           SKY/WX    TMP DP  RH WIND       PRES   REMARKS
GOSHEN         MOCLDY    19   6  57 E10       30.55F WCI   7
6HR MIN TEMP:  18; 6HR MAX TEMP:  22;

LOGANSPORT +   CLOUDY    21  10  63 SE10      30.54F WCI  10
PERU/GRISSOM   CLOUDY    21  10  60 E12       30.52F WCI   9
6HR MIN TEMP:  21; 6HR MAX TEMP:  23;

ROCHESTER +    CLOUDY    23   9  54 E10       30.54F WCI  12
SOUTH BEND     MOCLDY    20   5  52 SE9       30.55F WCI   9
6HR MIN TEMP:  18; 6HR MAX TEMP:  21; 6HR PCP: TRACE;

WARSAW +       CLOUDY    19   5  53 SE7       30.55F WCI  10

$$

INZ006>009-017-018-025>027-010100-
NORTHEAST INDIANA

CITY           SKY/WX    TMP DP  RH WIND       PRES   REMARKS
ANGOLA *+      CLEAR     16   3  57 SE3       30.56F
AUBURN +       MOCLDY    19   3  49 E3        30.58F
FORT WAYNE     CLOUDY    18   6  59 E9        30.58F WCI   7
6HR MIN TEMP:  18; 6HR MAX TEMP:  20;

HUNTINGTON +   CLOUDY    19   3  48 E8        30.56F WCI   9
6HR MIN TEMP:  19; 6HR MAX TEMP:  23;


$$

INZ028-029-035-036-043>045-051>053-010100-
WEST CENTRAL INDIANA

CITY           SKY/WX    TMP DP  RH WIND       PRES   REMARKS
CRAWFORDSVL +  LGT SNOW  20  11  69 E9        30.51S WCI   9
6HR MIN TEMP:  20; 6HR MAX TEMP:  23;

GREENCASTLE +  CLOUDY    23   9  54 E12       30.51F HAZE    WCI  12
LAFAYETTE      FLURRIES  22  10  60 E10       30.53F WCI  11
6HR MIN TEMP:  22; 6HR MAX TEMP:  25; 6HR PCP: TRACE;

TERRE HAUTE    LGT SNOW  24  19  81 SE7       30.52S WCI  16
6HR MIN TEMP:  24; 6HR MAX TEMP:  29; 6HR PCP: TRACE;


$$

INZ030>032-037>040-046>048-054>057-064-065-010100-
CENTRAL INDIANA

CITY           SKY/WX    TMP DP  RH WIND       PRES   REMARKS
CP ATTERBURY + CLOUDY    28  12  50 NE3       30.53F
FRANKFORT +    CLOUDY    23  12  63 E12       30.53F WCI  11
6HR MIN TEMP:  23; 6HR MAX TEMP:  25;

GREENWOOD *+   CLOUDY    23   7  50 E7        30.52F WCI  15
INDIANAPOLIS   FLURRIES  24   9  52 E9        30.51F WCI  14
6HR MIN TEMP:  22; 6HR MAX TEMP:  25; 6HR PCP: TRACE;

-EAGLE CREEK   CLOUDY    22  10  60 SE9       30.51F WCI  12
6HR MIN TEMP:  22; 6HR MAX TEMP:  24;

KOKOMO *+      CLOUDY    21  10  63 SE10      30.54F WCI  10
6HR MIN TEMP:  19; 6HR MAX TEMP:  23;

MARION +       CLOUDY    20   6  53 E8        30.55F WCI  11
MT COMFORT *+  CLOUDY    23   1  39 E8        30.53F WCI  14
SHELBYVILLE    CLOUDY    26  12  55 NE7       30.52F WCI  18
6HR MIN TEMP:  23; 6HR MAX TEMP:  27;

ZIONSVILLE +   LGT SNOW  23  10  57 SE10      30.52F WCI  12
6HR MIN TEMP:  23; 6HR MAX TEMP:  26;


$$

INZ033-034-041-042-049-050-058-059-010100-
EAST CENTRAL INDIANA

CITY           SKY/WX    TMP DP  RH WIND       PRES   REMARKS
MUNCIE         CLOUDY    21   8  57 E8        30.54F WCI  11
6HR MIN TEMP:  20; 6HR MAX TEMP:  22;


$$

INZ060-061-067>069-081>083-085>088-010100-
SOUTHWEST INDIANA

CITY           SKY/WX    TMP DP  RH WIND       PRES   REMARKS
EVANSVILLE     CLOUDY    34  21  59 NE3       30.49R
6HR MIN TEMP:  30; 6HR MAX TEMP:  35;

HUNTINGBURG *+ CLOUDY    34  16  47 E6        30.49S WCI  29
6HR MIN TEMP:  28; 6HR MAX TEMP:  34;

WASHINGTON +   CLOUDY    30  13  49 NE7       30.49F WCI  23
6HR MIN TEMP:  27; 6HR MAX TEMP:  32;


$$

INZ062-063-066-070>080-084-089>092-010100-
SOUTH CENTRAL AND SOUTHEAST INDIANA

CITY           SKY/WX    TMP DP  RH WIND       PRES   REMARKS
BLOOMINGTON    CLOUDY    28  11  48 E8        30.49F WCI  20
6HR MIN TEMP:  24; 6HR MAX TEMP:  29;

NORTH VERNON + CLOUDY    30   9  40 E5        30.51F WCI  25
SEYMOUR +      CLOUDY    30  16  55 E5        30.52F WCI  25

$$



USA.gov is the U.S. government's official web portal to all federal, state and local government web resources and services.